Theta_e
310 311 310 310 310 311 311 311 311 311 312 311 311 311 311 311 310 310 310 310 310 310 310 310 310 310 310 310 310 310 311 312 312 312 312 312 314 315 315 315 313 313 313 312 312 313 313 313 314 315 316 315 314 316 316 316 316 319 330 330 323 323 324 321 320 316 317 321 314 312 314 314 316 314 314 315 314 315 314 314 314 315 315 315 315 314 315 314
310 311 310 310 310 311 311 311 311 311 311 311 311 311 311 310 310 310 309 309 309 309 309 309 310 310 310 310 310 310 311 311 311 312 313 313 314 316 315 314 313 313 312 312 312 313 314 314 314 315 315 315 315 316 316 316 315 320 329 328 327 327 320 315 315 312 313 316 313 313 313 313 316 314 314 315 314 314 315 315 314 314 315 315 315 315 315 314
310 310 310 310 310 310 311 311 311 311 311 311 311 311 310 310 310 309 308 308 308 308 309 310 310 310 310 310 310 311 310 311 312 313 315 315 315 315 314 314 313 313 313 313 312 313 314 314 314 315 315 315 315 316 315 316 314 315 321 328 329 321 313 311 313 313 314 314 313 313 313 313 315 314 314 315 314 313 314 315 314 314 315 315 315 315 315 315
310 310 310 310 310 310 311 311 311 311 311 310 310 311 309 309 309 309 308 308 308 308 309 310 310 310 310 310 310 310 311 313 314 314 314 314 314 314 313 313 313 314 314 315 315 314 315 314 314 315 316 315 315 315 314 315 314 313 319 326 320 311 314 315 313 314 314 313 314 313 313 314 314 314 314 313 315 315 314 315 315 315 315 315 315 315 315 315
310 310 309 310 310 310 311 311 311 311 311 310 311 310 309 309 309 308 308 307 308 309 309 309 310 310 310 310 310 310 313 316 315 313 313 314 313 313 313 314 314 315 315 316 316 315 315 314 315 315 316 316 315 316 314 313 314 314 315 316 312 310 316 316 314 315 314 314 313 312 313 315 314 314 314 313 316 317 315 315 316 315 315 315 315 315 315 315
310 310 310 310 310 310 311 311 311 311 310 310 310 310 309 308 308 308 307 307 308 309 309 309 309 310 310 310 310 311 313 316 314 313 313 313 313 314 314 314 315 316 316 317 316 316 315 315 316 316 315 314 314 315 315 313 313 317 315 310 311 312 314 315 314 315 314 314 313 312 314 314 314 314 314 313 315 316 315 316 315 315 315 315 315 315 315 315
310 310 310 310 311 311 311 310 310 310 310 310 309 308 308 307 307 307 307 308 308 308 309 309 310 310 310 310 310 311 312 313 314 313 313 313 314 313 313 313 314 316 317 318 317 317 316 316 316 315 315 314 313 313 314 313 313 320 319 312 312 312 313 315 314 314 314 314 314 314 314 314 314 315 314 313 315 316 315 316 315 315 315 315 315 315 314 314
310 310 310 310 310 310 310 310 310 310 309 309 308 307 307 307 307 307 307 308 308 309 309 309 310 309 309 310 310 311 312 313 314 314 314 313 314 313 313 313 313 315 317 318 318 318 316 316 316 315 315 314 314 313 313 315 315 319 318 313 313 314 314 315 314 314 314 314 314 314 314 314 314 314 312 313 316 315 315 315 315 315 315 315 315 315 315 314
309 309 309 309 309 309 309 309 308 308 308 307 307 307 307 307 307 307 307 308 308 309 309 309 310 309 310 310 310 312 313 313 314 314 314 313 313 313 313 314 315 316 317 318 318 318 317 316 316 315 315 313 314 313 313 316 315 315 315 314 314 314 314 315 314 314 314 314 314 314 314 314 313 313 313 315 315 314 315 315 315 315 315 315 315 314 315 314
308 307 307 307 307 307 307 307 307 307 307 307 306 306 307 307 307 307 307 308 308 309 309 309 309 309 310 309 310 313 313 314 315 314 314 314 313 313 315 316 317 317 317 318 318 318 317 316 316 316 315 315 314 313 312 315 315 313 313 314 314 314 314 314 315 314 314 314 314 314 315 314 312 313 315 316 315 315 315 315 315 315 315 315 315 315 315 314
306 306 306 306 306 306 306 306 306 306 306 306 306 306 307 307 307 307 308 308 308 309 309 309 309 309 309 310 312 313 314 316 316 315 315 315 314 315 317 317 318 318 317 318 317 318 317 316 317 316 317 316 314 313 313 313 313 313 313 314 314 313 314 314 314 314 314 314 314 314 313 312 311 313 315 314 315 316 315 315 314 315 315 314 315 315 315 315
307 307 307 306 306 306 306 306 306 306 306 306 307 307 307 307 307 307 308 308 308 308 308 309 309 309 309 310 311 312 315 318 317 315 316 316 316 316 318 318 318 317 317 317 317 317 317 317 317 317 317 315 314 314 313 314 313 313 314 316 318 318 318 314 312 313 313 315 313 313 314 315 315 314 315 314 314 315 314 315 314 314 315 314 315 314 315 315
309 309 308 308 308 307 307 307 307 307 307 307 307 307 307 307 307 307 308 308 308 308 308 309 308 309 309 310 311 311 313 317 318 316 316 316 317 317 317 318 318 318 317 317 317 317 317 317 317 317 316 314 315 313 314 312 312 315 313 315 322 323 324 314 309 312 312 314 313 313 317 323 321 315 313 314 314 314 314 314 314 314 314 314 314 314 314 314
310 310 310 310 309 309 309 309 308 308 307 307 307 307 307 307 307 308 308 308 308 308 308 308 308 308 309 311 312 312 311 314 318 318 316 316 317 317 318 318 318 317 317 316 317 316 317 317 317 317 315 315 315 313 318 316 315 319 312 318 324 319 326 320 308 311 314 313 312 313 318 322 321 315 313 313 313 314 314 314 314 314 314 314 314 314 314 313
310 310 310 310 310 310 310 310 310 310 309 309 308 308 307 307 308 307 307 308 308 308 308 308 308 310 311 311 311 312 311 312 316 318 317 317 317 318 318 318 318 317 317 316 317 316 316 317 316 316 314 315 314 315 325 324 323 325 315 324 325 315 329 327 309 309 315 313 310 313 319 319 318 314 313 312 312 313 313 314 314 314 314 314 314 314 314 314
310 310 310 310 310 310 310 310 310 310 310 310 309 309 309 308 308 307 307 307 307 308 308 309 309 311 312 312 311 312 312 311 313 316 317 317 317 318 318 318 318 317 317 316 316 316 316 316 315 314 313 314 319 326 332 325 326 328 318 322 327 318 324 324 312 308 310 312 311 313 319 322 319 313 312 313 312 313 313 313 314 314 314 314 314 314 314 314
310 310 310 310 309 309 310 309 310 310 309 310 309 309 310 309 309 308 308 307 307 308 308 311 312 312 312 313 313 313 313 312 312 314 316 317 317 318 318 318 317 317 317 316 316 316 316 316 314 315 314 314 318 327 329 322 324 327 318 319 326 322 319 321 321 311 307 312 314 313 315 318 318 312 311 313 312 312 312 313 314 314 314 314 313 314 314 314
310 310 310 309 309 309 309 309 309 309 309 309 309 309 309 309 309 308 308 307 308 308 309 312 313 313 313 313 313 314 314 314 313 314 316 317 318 318 318 318 317 316 317 316 315 316 315 314 315 319 319 317 318 321 323 322 327 330 323 321 323 320 317 320 323 314 309 313 314 315 315 315 316 312 310 312 312 312 312 313 314 314 314 314 313 314 314 314
309 309 309 309 309 309 308 308 308 308 308 308 308 308 308 308 309 308 308 308 309 311 313 313 312 312 315 313 312 313 314 314 314 314 316 318 318 318 318 317 316 316 315 316 316 315 314 314 317 321 321 320 318 318 320 321 324 329 329 329 327 322 319 321 324 316 310 313 315 315 315 315 315 313 312 311 311 311 312 313 313 313 313 313 314 314 314 314
312 310 309 309 309 309 309 308 308 308 308 308 308 308 308 309 310 311 310 309 309 311 312 313 312 311 314 314 313 313 314 315 315 316 316 318 318 318 318 316 316 315 314 319 319 313 313 317 321 322 321 320 318 316 319 320 321 322 324 326 325 322 321 322 324 316 308 313 320 317 315 314 314 315 312 310 310 309 309 310 311 312 312 313 314 314 315 314
318 316 313 310 309 308 309 308 308 308 308 308 308 307 308 309 311 312 312 311 309 309 310 312 313 312 312 314 314 314 315 315 316 317 317 318 318 318 317 315 316 317 314 315 315 312 314 319 321 323 319 316 316 315 316 319 319 319 320 321 321 322 321 319 319 316 309 313 321 319 315 314 313 313 311 309 310 310 309 309 310 312 312 313 313 314 315 314
321 320 319 316 312 309 308 308 308 308 307 308 308 307 308 308 309 312 313 313 312 310 310 310 312 313 312 313 314 314 315 316 316 317 318 317 318 317 316 316 318 319 315 312 315 317 317 320 320 316 312 313 316 315 314 316 316 318 321 319 320 321 321 320 318 316 312 313 321 322 317 315 314 314 311 308 309 311 312 312 312 313 312 312 313 314 313 313
321 321 321 320 318 314 310 308 307 307 307 307 308 308 309 309 309 311 313 314 314 312 311 311 311 311 312 313 313 314 315 317 317 317 317 317 317 316 314 316 318 319 317 316 320 320 321 324 319 311 310 315 317 315 314 314 315 319 321 319 320 320 320 323 320 316 314 313 318 322 317 314 314 315 313 310 309 311 312 313 313 312 312 312 313 313 313 313
321 321 321 321 320 318 316 312 308 308 307 307 307 307 309 311 311 311 312 313 315 313 311 311 312 310 311 312 312 314 315 316 316 316 317 316 316 316 314 314 317 318 317 316 319 319 322 321 312 309 313 316 318 317 316 317 318 319 319 318 318 320 320 321 321 319 318 317 316 320 320 321 322 319 318 314 311 311 312 312 312 312 313 312 311 311 311 312
321 320 321 321 320 320 319 315 311 308 307 307 307 307 308 311 312 312 312 313 315 314 312 311 313 312 311 311 312 314 315 316 316 316 317 316 316 316 314 313 315 319 318 315 315 317 319 314 310 314 315 314 318 319 319 320 320 321 321 319 317 320 319 319 320 319 323 327 318 316 324 332 330 324 323 321 318 317 314 310 311 313 313 311 311 311 311 311
321 320 320 320 319 319 318 315 313 310 308 308 307 307 309 311 313 312 312 316 315 313 313 312 313 314 312 312 313 313 315 316 316 316 317 317 317 315 315 314 314 317 316 314 315 316 317 311 314 322 318 316 318 317 320 319 317 321 322 320 316 316 317 318 319 319 326 329 317 315 326 328 325 323 325 327 327 327 320 313 312 312 313 313 313 313 312 312
322 321 321 320 319 319 317 316 315 312 309 309 308 308 310 312 313 310 310 316 314 312 315 314 312 314 313 313 314 313 315 316 315 316 316 317 316 315 317 316 314 315 312 313 317 317 316 314 315 321 321 320 318 317 320 316 318 325 320 318 318 316 318 318 318 319 324 323 318 321 327 324 322 323 324 324 325 326 324 321 316 312 314 315 315 315 314 314
323 322 321 320 319 319 318 317 316 313 310 311 309 308 311 313 312 310 310 312 311 311 316 315 312 313 314 313 314 313 314 315 316 317 316 317 316 314 317 317 316 317 312 314 320 316 315 320 318 318 320 320 319 322 320 315 320 324 315 315 319 318 319 319 319 321 320 320 321 322 321 323 326 324 321 320 321 324 325 325 319 314 315 316 316 317 316 315
322 322 321 321 320 319 319 318 318 315 310 311 310 309 312 313 310 311 312 310 311 314 314 314 314 313 314 314 313 313 313 313 315 317 315 316 316 315 317 315 314 317 313 313 320 317 314 317 316 317 320 321 322 322 316 316 320 316 311 315 318 319 321 321 323 324 322 322 325 324 322 324 328 325 323 320 323 328 326 323 319 314 315 317 317 317 317 316
322 322 322 321 320 319 318 318 319 315 309 309 310 311 313 313 311 310 311 310 312 316 313 313 315 314 314 314 314 313 313 314 314 315 315 315 315 314 315 314 313 318 318 314 319 318 313 311 311 315 318 317 319 315 310 314 315 311 316 324 322 323 325 325 325 323 324 326 325 325 324 324 326 327 326 323 323 327 326 326 325 318 316 317 317 317 316 316
322 321 322 322 321 320 318 319 319 314 310 310 311 314 315 315 315 312 310 309 310 315 314 314 315 314 314 315 315 315 314 314 313 314 315 315 315 315 315 315 315 320 321 318 320 318 314 314 314 314 313 312 316 316 310 310 309 313 328 329 323 326 326 325 326 324 328 327 322 321 319 320 325 325 325 324 322 323 323 328 333 325 318 317 317 316 315 315
322 321 321 321 321 320 319 319 319 314 311 312 313 315 315 315 316 314 311 310 311 317 318 318 316 315 315 316 316 316 316 316 313 314 317 316 316 316 316 318 318 320 321 320 320 319 318 319 316 313 312 313 320 322 315 312 312 318 328 325 324 328 326 326 327 324 326 324 317 317 317 318 322 323 323 323 322 321 317 316 321 318 315 317 317 315 315 315
321 320 320 321 320 320 320 320 319 314 311 313 314 316 316 315 314 314 312 312 315 317 318 319 317 315 316 317 317 315 316 318 315 314 316 316 316 316 316 318 318 320 323 319 318 320 321 319 315 315 315 314 319 322 320 319 317 319 323 324 326 327 327 331 329 323 324 322 315 314 318 321 322 323 323 321 319 318 314 312 314 314 314 316 315 314 314 314
317 319 320 320 320 320 320 320 319 314 312 313 314 315 316 314 314 314 312 311 317 318 318 319 316 314 315 318 318 316 316 318 316 316 317 316 318 317 317 318 316 320 325 320 318 321 322 321 318 318 317 316 317 318 322 322 317 317 321 322 325 327 329 334 332 328 328 325 318 313 318 326 327 326 323 315 312 313 313 314 314 314 315 315 314 314 314 314
315 318 319 319 319 320 320 320 319 314 312 313 315 315 315 314 315 316 313 311 319 322 318 316 315 316 317 319 319 315 316 318 315 316 317 317 318 318 317 318 315 319 324 320 320 320 320 323 322 316 314 315 316 315 317 321 319 318 319 321 323 325 326 326 324 322 323 324 321 317 320 324 324 324 318 312 313 313 311 311 312 313 315 313 313 313 313 314
313 316 318 318 318 319 319 319 318 314 312 313 315 316 315 315 316 317 315 312 319 323 318 316 319 319 318 318 319 316 315 318 317 317 318 317 318 318 317 317 315 316 318 317 322 323 321 324 319 313 313 313 313 314 314 317 320 318 317 321 320 317 321 324 319 315 317 323 324 321 323 323 322 323 318 316 319 317 313 311 310 312 313 311 311 312 313 313
311 314 317 317 318 318 318 319 317 313 313 314 315 316 315 316 315 315 315 314 317 320 319 319 319 320 319 318 320 318 316 318 317 317 319 317 319 319 317 317 315 314 316 316 321 323 323 325 317 313 317 313 308 312 312 310 315 320 321 321 317 315 320 326 324 322 322 325 324 322 323 323 323 324 320 317 318 320 321 318 312 309 309 309 312 313 313 313
311 313 315 316 317 318 318 318 316 313 313 314 314 315 315 315 314 313 315 315 317 319 319 318 317 318 320 319 320 318 317 319 318 317 319 318 319 319 317 318 316 314 314 315 319 322 321 323 319 312 315 313 309 314 316 311 311 317 320 318 318 324 325 323 325 327 326 326 327 324 321 320 321 323 321 319 322 328 326 323 322 317 309 309 313 314 313 312
311 312 314 314 315 317 318 317 315 313 314 314 313 314 314 314 314 312 314 315 316 317 316 316 315 317 320 319 319 319 317 318 318 317 320 318 318 318 315 317 318 313 313 314 318 322 320 320 322 312 310 314 314 317 320 317 312 312 314 314 318 323 323 323 324 325 326 327 328 327 323 322 322 323 324 321 324 329 325 324 332 323 310 310 315 314 314 313
311 312 313 313 313 316 317 316 314 314 314 313 312 313 312 313 313 312 313 313 315 316 315 315 316 317 319 318 319 320 318 318 317 317 319 318 318 319 316 317 319 315 313 313 316 321 319 319 321 315 310 315 319 318 319 319 316 315 317 317 318 318 319 322 321 320 324 327 327 327 325 324 325 323 325 323 322 322 322 327 331 319 309 312 314 313 314 313
311 312 313 313 313 315 316 314 313 314 314 312 311 311 311 312 313 312 313 312 314 315 314 315 316 316 318 318 318 319 318 318 317 317 318 317 318 320 317 315 318 316 314 315 317 319 320 320 323 319 315 317 320 316 313 316 317 317 318 318 318 318 319 322 320 319 322 323 325 326 324 324 326 322 321 325 325 320 317 320 321 314 311 313 312 312 313 312
312 312 313 314 314 315 315 314 313 313 313 311 310 310 310 312 312 313 313 312 313 314 314 316 317 316 318 319 318 319 318 318 317 317 319 317 317 319 317 314 315 315 315 317 317 317 319 323 324 322 318 317 317 311 306 310 315 315 317 319 319 317 319 322 323 321 321 320 320 320 322 323 321 319 318 319 318 313 310 310 310 312 314 313 312 312 313 313
312 312 312 313 314 314 314 314 314 314 312 311 311 311 311 313 313 312 312 312 313 313 314 316 317 316 316 318 318 318 319 319 318 317 318 318 317 316 315 314 314 315 316 318 319 317 318 321 322 323 321 318 316 312 307 309 313 315 317 319 319 318 319 321 322 321 322 322 320 319 323 321 316 316 312 307 305 306 306 307 308 311 314 314 312 312 312 313
311 312 312 313 314 314 314 314 315 315 312 311 311 311 312 313 314 313 313 313 313 313 314 315 316 316 316 318 319 318 318 319 318 317 317 319 318 314 313 314 314 315 317 318 319 317 318 322 322 323 325 323 320 318 315 313 314 317 319 318 317 318 318 319 320 320 322 323 322 321 324 321 318 318 313 308 309 310 307 307 308 310 314 314 312 312 313 313
310 311 311 312 313 314 314 314 315 315 313 312 312 312 313 313 313 313 314 313 312 313 313 313 315 315 316 318 318 317 318 318 319 318 317 319 318 312 311 314 314 315 316 316 316 316 319 322 321 321 324 324 323 323 322 317 314 317 320 317 315 317 318 319 319 320 321 322 321 321 323 321 320 320 317 315 318 316 312 310 310 311 313 313 312 312 314 315
309 311 311 311 313 314 313 313 314 315 313 313 313 313 313 313 313 313 314 314 313 313 313 314 314 315 317 318 317 318 318 317 318 320 318 320 319 313 310 312 314 314 315 315 314 317 321 322 320 321 322 322 322 323 322 320 317 317 319 317 316 316 317 318 319 320 321 322 321 320 321 321 321 320 320 319 319 321 319 313 310 312 313 313 313 312 314 316
307 309 310 311 312 313 312 312 313 314 313 312 313 314 314 314 314 313 314 315 315 314 314 314 315 315 317 318 317 317 318 317 318 319 318 318 318 313 309 309 312 313 314 314 314 318 324 322 319 321 321 320 322 322 321 321 320 319 319 317 316 316 316 317 319 320 321 322 322 321 319 321 321 319 321 322 321 323 320 311 309 312 313 313 313 313 315 317
305 308 309 310 311 312 312 311 311 312 312 312 313 314 314 314 314 314 314 314 314 315 315 316 316 316 316 316 317 317 318 317 317 318 318 317 316 314 311 310 310 310 313 315 314 317 322 322 320 322 321 320 321 322 321 322 320 319 319 318 317 315 315 317 318 319 320 321 321 321 321 321 319 318 320 320 318 318 316 312 311 312 312 313 313 314 316 316
305 306 307 307 308 309 310 310 310 310 310 311 311 312 313 314 314 314 314 314 314 314 315 316 316 316 316 316 316 317 317 318 318 317 317 317 317 317 316 315 311 308 311 316 316 315 319 321 321 321 321 321 321 321 321 320 319 319 318 318 317 316 315 316 317 318 318 319 320 320 322 321 319 319 320 317 314 313 312 312 312 312 313 313 314 315 315 316
304 305 306 306 307 307 307 308 310 310 309 309 310 310 311 313 314 313 313 314 314 314 315 316 316 316 316 316 316 317 316 317 318 318 317 317 317 317 317 317 316 311 310 315 317 314 315 320 322 320 319 320 320 320 320 319 319 319 318 317 317 316 315 316 316 317 317 319 319 319 321 320 317 319 319 315 314 314 313 313 313 314 315 315 315 315 316 316
304 305 305 305 305 306 307 308 309 309 309 309 309 309 310 311 312 312 313 313 314 314 314 315 316 315 316 316 316 317 316 316 317 317 316 316 316 316 315 315 317 315 312 313 316 315 315 319 322 320 319 320 320 320 319 316 316 317 317 317 316 316 316 316 316 317 317 318 318 318 319 319 318 320 318 314 314 315 314 313 313 314 315 316 315 316 316 316
303 303 303 303 304 306 308 308 308 309 310 309 308 308 310 310 310 311 312 311 312 313 314 314 315 315 316 316 316 316 316 316 316 316 316 316 315 314 314 312 313 315 314 313 315 316 315 318 320 319 319 320 320 320 319 316 316 317 317 317 317 316 316 316 316 316 316 317 318 318 319 318 319 322 321 318 318 316 314 313 313 314 315 315 315 316 316 316
Wind_Speed
17 16 15 14 14 13 12 12 11 10 9 9 9 10 10 10 10 9 9 9 9 9 9 10 8 7 6 5 6 6 7 7 7 7 8 7 6 5 6 6 6 4 3 3 3 3 2 1 1 1 1 1 3 4 5 4 4 3 3 4 2 4 4 6 8 7 4 2 6 10 11 7 4 7 7 4 5 7 9 12 11 12 15 14 11 9 10 15
17 16 15 14 14 13 12 12 11 10 10 10 10 10 10 10 10 9 9 9 9 10 10 10 8 7 6 6 6 6 7 7 8 8 8 7 6 6 6 5 5 4 3 3 3 3 2 2 2 1 1 2 3 3 3 4 4 3 3 3 3 6 4 6 9 10 4 1 6 10 9 8 5 8 8 3 4 6 6 9 12 13 15 15 14 12 12 15
18 16 15 15 14 13 12 12 11 11 10 10 11 11 10 10 10 9 9 9 10 10 10 9 8 7 6 6 6 5 6 7 8 7 6 6 6 6 5 5 4 3 2 2 3 3 2 2 1 1 2 3 4 4 4 4 3 2 4 2 5 7 3 5 9 10 7 1 5 10 8 7 6 8 9 5 3 4 7 11 13 15 17 17 15 14 14 15
18 17 16 15 14 13 13 12 12 11 11 11 11 11 11 11 10 10 10 10 10 10 10 9 8 7 6 6 5 5 5 6 4 3 3 3 4 4 5 6 4 2 1 0 1 2 2 2 1 1 3 3 3 3 3 5 2 1 4 3 5 6 2 4 7 7 8 4 5 9 6 5 6 8 9 6 2 4 12 17 18 18 17 15 16 16 15 16
18 17 17 16 15 14 14 13 12 12 11 11 11 11 11 10 10 10 10 10 10 10 10 8 7 7 6 6 5 4 3 3 1 0 1 2 5 7 8 7 5 4 2 2 1 1 1 1 1 1 3 2 4 4 3 5 3 3 1 2 4 6 2 2 4 4 7 6 6 8 6 5 6 8 11 10 6 7 11 14 17 18 15 13 14 16 17 17
18 17 17 16 15 15 14 14 13 12 11 11 11 11 11 11 10 11 10 11 11 10 9 8 7 7 6 6 5 4 2 1 2 2 3 6 9 10 10 8 5 4 2 1 1 1 0 0 1 1 3 3 3 3 2 4 2 1 2 1 5 5 1 1 4 4 6 8 9 8 6 6 6 6 11 15 16 15 12 9 10 12 14 14 14 16 17 17
17 17 16 16 16 15 15 14 13 12 12 11 11 11 11 11 11 11 11 11 11 10 9 8 7 7 6 6 5 5 5 2 3 3 5 8 10 10 8 5 3 3 3 1 2 2 1 0 1 3 4 3 1 2 3 4 2 3 1 1 5 3 2 2 4 5 6 7 9 7 5 6 7 6 6 15 22 20 18 16 13 12 13 15 16 17 17 17
16 15 15 15 15 15 14 14 13 12 12 12 12 11 11 11 11 11 11 10 10 9 9 8 8 7 6 6 5 5 6 4 4 5 6 9 10 9 5 2 1 3 2 1 3 3 1 0 2 3 3 2 2 1 3 3 4 4 2 2 3 2 3 3 5 6 6 5 5 5 6 6 7 7 7 18 22 18 20 21 19 17 13 15 17 18 18 18
15 15 14 14 13 13 13 12 12 13 13 13 12 12 11 11 11 11 10 10 10 9 9 8 8 8 6 6 5 4 5 5 6 7 7 8 10 8 4 3 4 4 2 2 2 2 1 1 2 2 2 3 4 2 3 2 2 2 2 2 2 0 2 3 6 6 6 6 5 5 7 7 6 5 11 22 23 19 20 20 20 19 16 15 16 18 19 19
14 14 14 13 12 12 12 12 12 12 12 12 11 11 11 11 11 11 11 10 10 9 9 9 9 8 7 6 4 3 4 5 7 9 9 8 9 7 5 4 4 3 2 2 1 1 0 2 2 3 4 4 4 3 4 3 1 2 3 2 1 1 3 2 6 6 6 7 7 7 6 6 4 2 8 17 16 17 19 18 19 19 18 17 16 17 19 19
12 13 13 13 12 12 12 12 12 11 11 10 10 10 10 10 10 10 10 10 10 9 9 10 9 8 7 6 6 4 3 5 8 10 10 9 8 6 5 3 1 1 1 1 1 1 1 2 2 3 2 2 3 3 4 4 3 3 3 0 2 4 5 5 7 8 6 5 7 6 4 4 2 3 12 15 12 15 17 18 19 19 19 18 17 18 19 20
10 10 10 11 11 12 12 12 12 11 10 10 10 10 10 11 11 10 10 10 10 10 10 10 9 9 7 7 11 9 3 4 9 11 11 10 9 7 6 4 1 1 1 1 1 0 0 1 1 1 1 4 3 2 4 4 3 4 5 1 5 8 6 5 5 7 6 3 4 3 4 5 4 10 16 13 13 15 15 17 19 20 21 20 19 19 20 21
9 10 9 9 10 10 10 11 11 11 11 10 10 10 10 10 10 10 10 10 10 10 10 10 9 9 7 7 11 10 8 7 10 12 12 11 10 9 7 5 3 3 3 3 2 1 1 1 0 1 4 4 2 3 4 3 3 2 5 2 4 8 6 4 1 3 6 4 4 6 3 7 7 16 18 12 13 15 16 19 20 21 22 22 22 22 22 22
10 10 10 10 10 10 10 10 10 9 10 10 10 10 10 10 10 10 10 10 10 10 10 10 9 9 8 8 9 9 11 10 11 13 14 14 12 10 9 6 5 4 5 4 3 2 1 0 0 3 4 4 4 5 3 5 4 1 2 2 3 2 5 5 1 5 5 4 7 7 2 8 8 11 12 12 14 14 17 20 21 23 23 23 24 24 25 24
11 11 11 11 10 10 11 11 10 9 9 9 9 9 10 10 10 10 10 10 10 10 10 9 8 7 6 9 10 10 11 13 14 15 15 15 13 11 10 8 6 6 6 6 4 3 2 1 1 3 4 5 6 5 3 5 4 3 1 3 3 2 5 9 2 8 5 2 8 7 2 8 10 9 8 11 13 15 20 22 21 23 23 24 25 26 27 26
13 13 13 12 12 12 12 11 11 10 9 9 9 9 10 10 10 10 10 10 10 9 9 8 8 6 4 7 9 10 12 15 16 17 17 17 15 13 11 9 7 7 7 6 5 4 3 2 2 4 4 4 5 4 4 3 4 4 1 3 2 2 3 7 3 6 3 2 5 5 3 5 6 4 3 6 12 16 20 22 23 24 24 25 26 27 28 27
15 15 15 14 14 14 13 12 11 11 10 10 9 9 9 9 9 9 10 9 9 9 8 6 5 5 6 8 9 11 14 16 16 18 18 17 16 14 12 9 8 8 8 7 6 5 3 2 4 3 3 3 3 4 3 2 4 3 1 2 4 3 3 3 4 3 2 2 4 4 4 8 8 4 3 3 9 15 20 24 25 24 26 26 27 28 29 29
16 16 16 16 16 16 15 14 12 12 11 10 10 9 9 9 9 9 9 10 9 6 5 6 4 0 7 13 13 12 12 14 16 17 18 18 17 14 12 9 7 8 7 6 5 4 2 2 4 1 3 3 2 5 3 5 4 3 3 2 3 3 3 4 5 2 3 1 3 3 4 12 13 12 14 11 10 16 22 25 25 25 26 27 28 29 30 32
15 16 17 18 18 18 18 16 14 14 13 11 10 8 8 7 7 7 8 10 10 6 3 10 13 4 2 10 15 14 11 11 14 17 19 19 17 15 11 8 6 7 6 4 2 3 4 3 5 2 1 3 4 7 8 8 6 5 6 5 4 4 3 5 6 5 3 2 4 7 8 11 12 13 16 17 15 19 24 25 27 28 28 28 30 32 33 34
12 14 16 17 18 19 19 18 16 15 14 12 10 8 6 4 3 3 9 14 17 15 9 9 17 13 2 1 8 13 11 10 13 17 18 18 18 14 10 8 6 5 4 4 2 2 4 3 2 4 8 8 9 9 6 4 6 5 4 3 3 4 4 5 5 5 1 3 6 8 9 10 12 12 15 17 14 16 23 25 29 32 32 33 34 35 36 35
9 10 13 14 17 18 19 19 18 18 15 13 11 8 5 7 4 2 7 13 19 23 20 13 13 17 12 5 4 8 10 10 13 17 17 18 17 12 9 8 5 2 2 3 4 2 4 4 7 10 10 8 7 7 5 4 4 4 3 2 3 3 5 7 4 4 0 3 5 6 7 10 12 12 16 16 9 15 24 25 31 36 35 36 37 39 39 36
9 9 10 12 14 16 17 18 18 19 17 14 12 9 7 9 9 6 4 6 13 19 24 23 18 17 18 15 10 9 10 8 10 16 18 19 18 12 10 8 4 3 2 3 5 2 1 4 11 11 5 5 3 5 6 3 3 3 3 1 4 3 4 7 4 5 1 3 5 6 7 10 11 11 15 18 16 21 30 31 35 37 34 36 38 40 39 37
10 9 9 11 12 13 15 16 17 19 18 16 13 11 9 9 10 10 6 4 10 14 19 25 26 25 23 20 16 14 13 9 9 17 20 21 19 14 12 9 4 3 3 4 6 4 2 6 11 8 8 7 3 4 6 3 1 2 3 2 4 3 1 4 4 4 1 2 3 5 8 9 9 9 12 22 25 24 31 36 38 38 36 38 38 36 36 37
11 10 10 10 11 12 13 13 16 17 17 16 14 13 12 10 9 8 6 3 7 10 15 20 24 30 29 23 20 18 17 13 11 17 23 24 21 13 11 9 5 4 4 8 8 6 5 5 3 6 8 7 4 4 7 4 3 4 5 6 5 4 6 6 4 5 3 2 3 4 8 7 7 8 9 13 13 15 28 34 35 39 41 39 36 34 35 36
13 12 11 11 12 11 11 12 14 16 17 16 14 14 14 11 7 4 3 2 5 6 10 15 18 25 29 25 22 18 15 14 14 17 23 28 25 13 7 9 6 4 7 6 5 5 7 5 3 6 4 5 6 4 6 7 4 5 5 9 10 8 7 5 4 6 4 4 4 4 5 6 4 6 8 6 3 8 19 21 26 36 37 33 33 36 37 35
15 14 12 13 13 11 11 12 12 13 16 16 14 14 14 11 7 4 3 3 4 4 3 9 11 13 20 22 23 17 6 11 16 19 23 28 27 14 6 6 4 4 6 5 2 3 4 3 4 6 5 6 6 4 6 8 5 4 5 8 10 7 4 4 2 1 1 4 3 4 1 7 5 5 8 7 5 9 12 12 20 29 29 28 31 34 34 33
18 16 15 15 15 15 15 12 10 12 14 13 13 15 15 12 10 7 4 4 5 5 6 8 9 10 13 18 27 19 2 6 14 17 25 28 25 14 6 5 3 3 5 5 2 3 3 3 4 6 6 5 5 4 6 8 7 4 4 5 7 6 6 5 4 3 4 3 4 3 3 5 8 6 6 5 6 8 11 14 17 21 26 28 29 30 30 31
22 19 17 18 18 18 15 12 12 12 11 8 10 17 17 15 13 8 5 1 3 5 6 6 9 11 12 18 30 19 5 11 11 13 27 29 24 13 6 8 7 5 7 7 4 3 3 6 6 7 5 4 6 5 7 11 5 5 2 5 6 6 5 4 5 3 1 2 4 2 3 3 9 6 1 1 3 6 12 16 13 16 23 24 24 25 25 26
25 23 21 19 19 19 16 16 14 10 9 8 11 19 21 19 13 7 4 2 2 3 2 6 8 9 13 19 22 12 8 8 3 12 25 25 24 11 2 9 8 5 6 5 5 3 1 4 7 8 6 6 5 1 7 11 5 4 6 7 6 5 5 5 4 3 2 2 5 6 6 3 8 4 3 3 2 7 11 12 10 15 20 19 18 18 16 18
26 26 25 22 23 23 21 20 15 9 12 13 16 24 26 20 10 5 2 3 2 1 3 6 6 9 16 15 8 4 5 2 4 15 17 14 18 10 3 7 6 5 2 4 3 3 1 1 3 4 4 5 5 3 2 6 6 8 7 6 6 5 5 4 2 4 2 5 5 8 10 6 6 3 4 3 4 7 8 8 8 12 16 14 13 12 11 12
27 28 28 29 30 28 26 24 18 14 16 17 24 31 26 12 4 4 6 1 1 1 4 3 2 8 15 11 5 4 2 1 6 14 9 5 10 6 5 6 3 4 1 5 4 4 3 1 1 3 4 6 8 5 4 4 6 7 4 4 4 3 4 4 4 4 1 5 3 3 6 7 7 6 3 5 7 6 7 7 7 9 13 12 8 7 8 8
28 30 32 34 35 32 29 26 18 18 19 22 31 32 18 4 1 5 5 2 1 4 4 4 3 6 10 6 4 7 4 2 6 8 5 4 6 7 6 6 5 3 2 6 4 4 3 5 2 1 4 6 6 5 4 4 2 3 4 6 4 2 2 2 3 1 3 6 3 1 1 4 9 8 5 10 13 10 10 12 13 13 17 18 13 11 11 12
25 27 31 36 37 35 32 26 18 20 23 27 32 23 8 3 6 9 8 3 2 2 2 3 3 6 10 6 4 5 3 2 6 5 3 4 5 7 7 5 5 3 2 5 3 1 3 5 1 2 2 8 10 6 3 1 3 5 5 6 4 2 1 3 3 2 4 5 2 1 1 3 6 5 9 16 17 13 13 19 22 21 25 27 23 20 19 19
19 21 28 35 38 35 32 28 23 24 29 31 24 11 5 6 7 10 12 8 1 2 2 3 5 5 7 4 3 6 4 3 6 5 3 5 5 6 6 6 6 2 3 4 3 6 4 5 5 6 3 11 12 7 6 6 5 6 4 5 5 5 5 4 3 4 5 4 3 2 1 4 3 3 8 12 13 15 16 19 21 23 28 29 26 24 23 23
17 18 25 34 38 35 33 33 29 29 36 34 16 6 9 8 6 8 11 7 2 2 2 3 7 6 4 2 3 5 3 2 5 5 3 6 6 7 7 8 11 6 5 4 2 4 4 6 6 3 2 12 11 5 6 7 3 3 2 4 3 5 5 2 3 5 2 3 4 2 4 5 4 6 9 9 12 15 16 15 16 21 25 24 23 23 21 21
19 18 23 33 40 38 35 37 33 33 41 32 10 6 10 9 7 7 6 5 5 5 6 3 4 4 5 2 2 5 1 1 5 4 3 4 4 6 7 7 12 12 9 7 3 2 2 4 4 2 1 5 5 3 5 4 3 2 3 4 4 4 6 2 2 1 3 3 4 3 5 5 3 8 10 8 12 13 11 13 17 23 23 21 24 25 22 21
20 19 22 30 37 36 36 40 36 37 41 25 7 8 10 9 10 7 4 5 7 9 8 3 2 5 6 4 3 7 2 1 4 4 4 3 3 7 7 5 9 16 14 8 2 3 4 3 4 2 1 2 1 4 4 3 4 5 4 6 2 2 2 3 1 2 3 3 4 2 6 5 3 6 5 1 7 11 11 11 13 18 18 18 23 24 22 22
19 20 24 29 32 32 36 42 39 40 35 13 5 10 8 10 14 10 4 5 7 9 7 6 5 5 7 6 5 7 6 3 5 6 4 3 5 9 10 6 8 18 21 11 3 3 3 2 4 1 2 2 3 4 2 4 3 4 4 5 4 2 2 2 2 2 1 3 5 3 4 5 6 6 2 2 7 10 10 7 6 10 12 13 16 16 16 19
17 17 23 31 32 31 35 40 42 42 25 6 5 9 6 10 18 15 7 3 4 8 8 8 7 4 5 8 5 6 8 8 8 7 5 5 6 7 14 12 8 15 22 16 6 2 3 3 3 2 1 1 3 2 5 1 2 3 2 3 3 2 3 3 3 3 3 3 4 3 5 5 7 7 7 10 11 10 8 5 6 9 9 8 8 8 10 14
16 12 16 26 28 26 32 39 40 30 13 6 9 8 5 8 14 18 17 9 4 6 7 8 8 6 6 8 5 5 8 8 9 8 5 7 6 5 11 13 5 6 16 16 8 1 2 3 3 2 3 1 2 4 8 10 7 4 4 5 3 1 2 1 1 2 4 2 2 2 7 9 6 5 9 12 11 10 9 7 8 10 8 5 4 5 7 9
17 9 11 21 21 21 32 34 24 14 5 5 7 6 8 9 7 12 23 21 11 6 5 4 6 7 6 7 5 4 6 6 7 7 4 7 8 5 9 17 12 9 9 8 8 5 3 3 4 2 1 4 5 4 4 8 7 7 7 8 9 6 4 2 2 1 3 2 4 3 7 13 6 5 8 9 8 8 9 8 9 11 9 6 5 3 4 6
17 9 11 17 16 21 32 22 9 10 7 7 13 12 11 10 5 9 18 22 17 9 4 3 5 7 5 6 7 5 6 5 6 7 5 9 12 8 11 21 24 22 15 7 9 9 4 3 3 3 4 6 6 2 1 2 2 2 2 4 5 4 4 6 5 4 3 2 1 5 4 13 5 5 6 5 4 5 7 8 11 13 10 7 7 3 0 1
19 17 14 13 17 26 28 11 5 10 6 9 20 18 12 8 7 10 13 16 15 9 7 5 5 8 7 4 7 7 7 7 7 10 8 9 12 9 10 21 24 21 13 4 3 5 4 3 3 3 2 3 3 2 2 2 3 2 1 2 5 7 8 6 4 4 4 4 3 4 5 11 3 2 3 2 3 6 7 11 15 16 12 7 7 4 2 1
16 22 17 12 21 30 21 6 7 9 6 10 13 14 16 11 7 11 11 13 13 9 8 8 4 7 7 3 5 8 10 8 7 13 11 7 7 6 12 24 23 15 11 9 9 11 7 4 4 3 2 3 3 2 2 0 2 3 4 5 8 10 8 3 1 2 2 8 10 6 9 12 3 3 2 1 3 6 10 14 17 16 12 7 6 4 2 4
9 15 15 16 28 34 23 14 13 8 8 13 11 12 17 11 8 15 15 14 16 11 8 10 9 7 4 3 5 6 11 12 9 10 10 7 3 1 11 25 24 16 13 13 17 19 10 5 7 7 7 8 8 7 5 3 3 2 5 8 9 11 12 7 3 4 6 9 9 7 14 12 2 4 6 4 3 6 10 13 15 17 14 10 7 5 4 6
5 5 8 12 24 31 26 23 22 12 8 12 10 11 16 11 9 17 15 12 16 16 11 9 9 8 4 5 6 7 11 14 11 5 5 8 4 1 8 21 26 21 12 7 14 15 5 4 11 12 12 13 14 10 5 9 7 7 11 14 13 13 15 11 6 7 9 5 5 13 20 16 9 7 7 7 6 7 8 9 15 19 16 12 10 6 5 8
5 2 4 6 12 18 17 15 15 10 9 13 8 6 15 15 9 10 12 10 12 15 13 8 7 9 9 10 10 9 10 11 9 6 6 7 4 2 3 12 18 20 10 4 11 10 2 4 13 15 17 18 18 14 8 12 14 17 18 18 17 17 16 14 13 16 12 5 9 21 19 17 21 14 9 9 9 7 7 11 18 19 14 12 10 7 7 11
8 5 6 6 4 6 9 13 14 10 9 12 8 6 14 16 12 9 10 9 11 12 10 7 9 12 14 16 13 10 9 8 8 10 10 7 3 1 1 2 7 13 8 4 8 7 2 6 10 13 18 19 19 15 10 12 14 16 19 20 20 20 19 19 22 25 17 11 18 24 14 16 25 19 12 11 9 10 15 19 20 16 12 12 11 9 11 14
12 9 11 11 5 3 7 13 15 13 11 9 6 7 12 15 16 13 8 7 8 11 11 9 13 18 19 18 15 12 11 10 10 12 11 9 6 4 4 3 3 8 7 5 5 5 3 6 9 13 15 17 21 18 12 14 14 13 15 19 20 21 24 26 28 29 23 19 23 23 15 18 22 15 10 13 18 21 19 16 16 16 15 15 13 15 17 18
13 8 9 11 8 8 11 10 7 9 10 8 5 6 8 10 14 12 10 10 8 10 14 15 17 18 18 18 16 15 16 15 15 15 13 11 8 5 5 4 3 5 7 6 4 4 6 7 7 9 10 13 19 19 13 13 14 13 12 13 16 21 25 28 27 24 20 20 24 21 16 19 14 5 9 17 24 24 16 14 20 23 23 21 21 22 23 23
20 15 11 8 4 6 9 7 4 5 6 7 6 6 7 10 13 10 9 14 14 10 12 17 20 16 14 17 17 17 21 20 19 19 14 13 14 12 9 8 8 7 7 7 5 4 6 5 1 3 7 12 17 19 14 10 7 9 9 12 18 22 23 23 21 19 18 20 21 16 14 18 9 7 9 14 18 16 16 20 24 26 28 28 26 26 25 22
22 21 19 13 5 4 5 4 4 5 5 6 9 10 10 12 13 10 6 10 15 17 16 17 19 15 12 14 18 23 30 28 24 22 16 15 19 16 12 11 12 10 8 8 6 5 7 6 4 5 8 12 16 17 10 5 3 8 13 20 27 25 19 14 15 19 20 18 15 13 17 21 10 7 7 9 9 12 18 24 26 26 27 27 26 25 23 21
Wind_Direction
203 203 204 206 205 205 207 208 211 213 218 221 219 213 208 205 201 202 203 203 206 206 203 201 206 218 232 242 241 242 246 254 263 271 279 282 268 239 233 246 258 254 231 228 216 212 221 247 289 255 264 76 81 78 81 75 84 90 94 93 146 178 192 190 180 189 166 201 212 193 187 173 167 176 173 178 188 199 201 206 213 217 222 232 243 243 228 214
206 208 209 211 210 209 210 212 215 218 222 222 216 209 207 206 205 204 204 206 207 205 201 201 209 222 238 248 246 248 252 264 273 279 281 273 252 241 251 248 234 221 213 227 216 217 226 259 276 230 202 106 74 68 85 57 61 76 102 102 200 194 204 193 180 192 175 57 191 185 189 187 185 179 176 194 203 187 200 219 222 227 227 229 239 234 224 216
210 211 213 214 213 213 214 217 219 222 224 221 214 206 206 207 207 206 206 207 206 203 201 205 216 228 244 252 252 255 264 279 281 286 281 259 249 246 244 213 194 191 203 232 224 235 256 275 287 129 107 100 65 69 77 43 53 62 97 105 234 209 219 206 194 205 207 225 172 180 190 195 199 187 187 208 209 195 216 222 220 229 230 228 231 227 223 218
213 213 214 214 214 214 216 220 223 226 226 221 212 206 207 207 207 208 208 207 204 202 203 210 222 232 247 253 257 261 282 301 281 279 285 254 236 208 178 164 151 131 135 36 258 255 268 283 274 131 90 86 40 59 54 27 38 60 107 160 223 188 183 214 211 222 214 222 187 180 176 199 210 197 203 197 175 248 238 232 232 238 239 234 229 225 225 221
213 213 213 213 214 215 217 220 224 227 226 220 213 209 208 207 208 209 208 206 202 202 206 215 225 236 250 254 260 259 294 349 256 162 39 155 151 152 141 131 117 97 85 43 1 323 258 245 159 118 74 67 26 47 31 25 73 85 61 227 173 147 129 214 206 211 206 206 186 175 168 203 205 203 217 202 197 242 245 247 245 247 248 244 239 233 227 223
212 212 212 213 215 217 219 221 223 222 220 217 214 213 211 209 209 209 208 205 203 206 210 217 228 241 252 255 263 250 240 30 145 114 107 141 139 137 131 120 100 70 51 39 6 10 353 100 130 104 65 56 22 50 42 18 64 103 350 252 159 148 53 188 202 206 197 187 179 179 191 203 192 216 231 218 226 241 250 262 254 249 246 243 244 238 234 230
211 213 213 215 216 219 220 220 218 215 213 213 214 214 213 210 209 209 208 205 207 209 214 221 232 244 253 258 262 247 249 255 187 151 137 149 145 141 137 124 86 33 30 36 2 6 348 346 119 106 82 72 60 73 34 19 57 104 96 169 175 205 305 214 208 199 180 183 190 193 208 210 205 227 249 238 242 247 253 260 260 260 250 243 242 237 237 236
210 213 214 215 217 218 218 217 214 211 210 211 212 212 211 211 211 210 207 207 210 212 219 226 233 244 253 257 259 259 258 244 200 182 161 161 158 157 160 158 350 353 8 13 4 10 352 5 132 123 96 82 141 135 19 29 46 63 147 192 175 222 282 220 206 201 189 199 213 216 227 232 228 239 262 256 254 253 253 258 261 265 258 245 239 237 236 233
205 207 209 212 214 215 215 215 212 211 211 211 211 210 209 209 210 209 208 210 212 217 224 229 236 245 250 250 257 271 255 228 204 190 171 172 175 177 199 255 295 313 318 313 339 342 324 128 140 147 154 134 128 82 36 62 352 33 138 163 156 297 332 219 210 209 212 226 231 232 244 253 247 256 267 261 259 256 252 254 257 261 259 248 237 235 235 234
202 204 205 206 209 212 213 212 212 213 213 213 212 210 208 209 210 209 210 213 217 223 228 234 238 242 246 246 239 246 244 221 203 192 180 180 185 194 229 262 283 292 292 284 302 346 354 147 135 124 135 133 118 64 36 69 105 79 95 102 112 320 329 254 226 227 229 241 239 228 250 263 237 211 258 258 257 252 249 248 250 252 254 249 239 234 234 235
204 205 205 203 203 206 208 209 210 211 212 212 210 209 208 210 212 212 215 218 223 227 232 237 240 241 245 242 219 210 236 214 197 192 187 188 196 212 230 230 247 255 259 266 252 14 101 147 137 133 134 137 124 69 55 82 101 72 59 173 313 335 305 261 242 242 231 244 243 227 260 270 169 191 246 252 252 250 247 244 245 246 248 246 239 235 232 233
211 211 210 208 206 206 207 208 208 208 209 209 210 210 209 212 213 215 220 224 229 232 235 239 241 242 243 244 234 229 242 206 192 194 194 196 205 215 215 197 201 236 221 218 212 258 162 169 167 196 149 145 149 77 84 89 82 56 56 297 309 352 326 260 245 237 210 227 238 184 289 274 195 229 246 250 247 243 240 240 242 242 243 242 238 235 232 231
218 219 217 215 216 218 218 215 213 210 207 208 211 211 212 217 217 218 221 226 231 234 238 241 243 246 244 248 246 239 238 219 199 201 202 203 209 214 208 202 233 235 207 207 211 228 216 215 218 152 136 135 141 116 116 74 67 51 51 48 324 359 330 283 333 208 186 204 184 139 272 271 237 242 247 252 244 233 232 237 238 239 240 239 239 237 235 233
222 225 226 222 221 225 228 229 228 224 219 215 213 213 216 220 222 224 225 227 232 235 239 242 245 245 243 248 252 244 235 223 209 207 207 209 213 215 212 218 244 229 216 220 219 239 249 296 110 132 125 118 123 124 92 27 43 29 14 24 16 8 281 296 24 153 160 205 179 143 244 266 264 261 254 251 243 230 233 239 239 239 239 240 241 241 241 239
234 233 233 233 231 230 231 233 233 234 235 234 229 224 221 222 226 227 227 229 230 234 237 240 243 242 249 254 252 247 236 226 219 213 209 211 216 220 218 225 238 224 221 224 220 233 243 208 149 104 100 113 121 111 30 1 21 31 341 310 348 169 264 307 268 172 161 194 171 151 234 270 276 283 270 245 231 226 236 243 243 242 242 241 243 244 245 246
246 244 241 242 241 241 242 240 239 238 236 240 243 238 232 228 229 230 230 231 231 233 234 238 239 232 251 263 251 248 239 229 223 218 213 213 217 220 220 228 234 225 220 221 223 226 231 215 112 86 98 120 112 88 44 10 343 2 81 247 267 180 267 320 286 197 175 112 172 195 240 276 280 293 297 228 220 223 233 244 245 245 246 244 245 246 248 249
249 249 249 247 245 246 246 247 250 248 243 241 243 245 244 237 233 233 231 230 230 230 228 228 234 237 252 258 251 245 237 228 223 219 215 214 217 219 221 225 225 223 219 218 224 222 226 181 124 100 70 74 85 93 64 322 287 311 11 240 240 200 216 298 313 254 170 123 211 222 229 253 260 270 304 239 224 226 231 244 249 248 249 247 247 248 249 250
248 249 251 250 249 247 246 248 250 252 253 250 250 250 248 244 238 235 231 229 223 219 229 215 185 289 253 240 235 236 235 227 221 218 215 214 216 218 220 221 219 218 213 215 228 206 190 113 110 93 23 20 56 109 152 227 209 203 189 203 248 235 218 250 286 250 151 140 234 214 236 255 263 270 271 265 245 235 239 249 252 251 251 249 249 249 250 250
246 247 248 249 250 249 247 246 244 247 250 251 254 252 248 244 236 232 228 222 206 188 221 211 193 167 236 229 228 232 235 225 217 215 214 212 212 214 215 213 209 201 179 178 221 168 144 97 85 94 230 231 202 169 195 205 162 164 174 158 191 227 251 235 249 251 177 173 235 224 234 250 262 269 268 265 251 243 250 255 255 253 251 249 249 249 249 249
241 243 244 246 248 249 249 248 245 243 243 246 248 244 234 205 184 234 222 217 216 212 219 217 207 206 199 262 225 226 227 217 212 210 208 208 208 206 200 192 183 178 163 158 183 150 130 131 151 203 214 211 206 194 187 157 123 119 135 142 192 212 271 257 257 288 200 177 245 234 236 252 259 265 268 267 254 243 250 254 255 254 251 249 249 250 250 250
236 241 243 245 245 247 248 248 249 245 242 242 237 227 209 185 172 250 222 226 234 228 229 235 223 219 228 259 244 215 210 203 204 204 201 201 199 193 187 176 153 163 216 142 125 113 119 158 219 224 214 202 197 179 146 121 102 85 124 195 263 212 256 259 259 312 333 175 266 266 260 259 254 261 269 267 248 240 246 247 252 255 252 251 251 251 251 250
232 240 245 247 245 245 246 246 248 248 245 239 229 219 213 214 221 240 246 260 260 244 236 236 235 229 229 238 243 217 198 190 197 199 194 190 189 189 182 165 148 171 186 112 105 87 124 218 238 227 172 120 124 146 146 139 100 81 114 175 270 244 275 283 300 338 18 182 271 300 284 264 253 256 262 256 240 244 251 250 254 256 254 253 252 252 251 249
234 242 247 248 248 245 244 244 244 244 243 238 230 220 221 230 231 239 256 293 282 263 244 237 237 234 228 229 233 218 201 197 196 194 191 187 185 188 178 160 147 142 146 172 163 157 188 247 247 209 151 129 99 108 121 109 103 166 162 184 249 242 268 282 301 334 13 192 278 302 286 272 257 252 254 252 246 249 256 256 258 258 256 256 256 256 254 250
235 236 245 250 250 249 246 243 240 241 241 238 232 222 222 228 227 236 246 275 289 266 249 243 237 235 231 227 228 218 208 212 207 194 192 187 178 178 182 168 134 127 183 201 187 189 219 249 241 149 157 162 127 106 129 146 246 237 204 202 227 230 218 234 294 326 328 349 9 339 295 275 244 241 250 258 256 254 257 258 259 259 257 258 259 257 256 254
238 231 239 245 246 252 251 243 237 239 240 238 229 216 214 215 214 226 224 273 290 267 253 241 234 237 233 226 223 213 208 220 219 204 197 192 182 168 172 171 149 179 208 199 193 237 249 238 132 116 135 153 141 153 173 172 217 266 229 206 216 224 227 248 335 0 353 330 347 17 314 282 252 241 256 280 304 261 256 257 257 258 259 258 257 258 256 255
237 230 228 237 245 243 236 239 241 238 237 236 223 205 202 197 183 179 135 37 288 244 214 210 216 230 221 214 205 191 207 235 218 207 198 195 191 173 151 162 151 198 191 163 188 249 240 212 129 123 135 152 163 208 215 180 176 265 248 206 211 209 214 251 287 23 298 266 296 49 28 281 279 230 239 250 254 261 266 265 258 259 263 260 258 260 257 255
227 227 226 229 236 232 223 230 239 229 227 232 215 192 187 178 164 160 121 23 283 196 152 179 187 192 200 197 186 177 202 202 187 201 196 192 194 185 176 173 134 198 168 133 235 252 173 153 92 114 126 140 171 219 218 170 154 239 247 169 176 179 198 218 183 190 238 266 315 36 107 279 283 247 236 226 229 268 277 269 264 262 263 263 263 263 262 259
221 218 221 224 232 238 232 232 239 230 220 218 193 182 173 163 158 143 114 350 259 152 146 175 169 176 181 179 180 174 135 147 151 195 192 188 193 191 204 199 170 187 175 151 220 265 150 168 176 155 136 160 192 219 185 155 159 246 206 126 142 159 169 148 133 180 298 3 306 293 135 260 278 263 328 26 214 255 261 258 264 265 266 269 269 269 268 265
231 219 216 219 230 238 237 235 237 233 215 190 169 172 163 153 149 113 89 226 199 114 135 162 153 164 155 161 181 175 133 146 132 178 181 185 192 189 209 201 175 162 189 196 217 253 94 186 193 163 154 197 204 257 174 163 181 194 135 97 82 80 81 87 113 124 49 330 247 216 168 235 275 239 108 59 211 232 247 254 263 268 271 274 274 276 274 266
241 233 223 215 219 224 225 228 228 209 192 178 164 162 155 148 135 103 160 226 194 100 108 151 164 163 149 150 187 187 136 141 108 149 165 180 187 183 119 164 154 123 198 284 248 246 323 113 182 174 177 178 135 65 141 155 147 136 114 69 55 39 41 52 48 83 55 282 245 202 185 190 274 268 161 186 218 217 233 256 271 272 273 273 275 276 272 264
240 242 235 222 218 219 219 221 217 195 179 167 162 157 149 142 107 144 198 231 6 149 113 145 180 152 156 155 177 185 135 65 134 147 153 159 174 171 122 142 130 91 342 288 275 310 318 145 208 208 174 133 103 67 35 77 119 120 89 81 80 353 8 26 355 49 184 261 277 232 196 184 240 260 225 246 264 237 220 241 263 270 271 270 269 269 270 270
236 241 242 233 225 221 223 226 213 188 174 161 162 159 147 138 196 208 212 55 22 199 150 174 193 158 166 161 168 174 135 112 166 162 153 145 167 184 184 183 164 125 270 241 241 332 271 222 242 184 175 158 119 80 43 28 53 105 98 114 110 332 345 341 309 52 230 253 283 323 173 210 245 250 252 266 268 246 219 231 244 253 265 270 269 270 273 273
233 235 240 238 231 224 226 232 214 185 173 163 163 159 137 161 196 208 213 184 203 219 125 132 141 151 159 154 182 171 125 166 179 170 161 147 174 207 223 225 180 152 205 193 183 240 268 289 223 129 223 192 167 155 160 189 192 169 146 146 149 146 182 266 272 265 269 267 293 354 153 249 275 265 237 243 253 251 238 242 250 258 267 272 273 272 272 269
232 234 238 237 236 232 231 234 217 188 173 164 160 152 146 192 197 202 212 213 219 21 57 99 103 129 158 166 206 167 146 221 176 153 155 147 173 214 229 238 218 151 98 145 173 182 220 286 202 176 197 184 184 190 163 135 162 187 155 142 160 161 173 215 219 227 262 285 299 308 202 204 224 267 242 241 266 273 257 250 254 259 263 268 270 268 267 267
232 233 237 233 231 231 235 234 218 190 173 164 158 168 179 191 203 207 215 209 172 48 31 73 100 126 192 278 287 187 168 228 174 148 166 171 191 204 196 210 205 173 139 180 221 163 200 268 237 225 160 167 181 186 124 109 144 213 118 119 193 188 163 183 204 183 185 303 296 237 225 219 214 268 267 261 274 270 261 260 257 256 259 263 265 263 262 264
234 225 231 230 225 226 232 230 216 189 175 166 158 200 193 199 203 198 206 185 163 132 102 81 87 128 200 238 269 224 218 89 151 150 201 207 230 210 200 214 197 185 183 182 185 142 171 276 285 350 43 168 178 162 128 135 181 166 138 179 215 175 136 126 256 81 86 271 272 196 243 288 313 279 266 251 260 265 267 267 257 257 260 260 261 260 259 259
235 226 228 229 228 230 229 226 215 188 176 171 178 200 196 212 211 198 189 162 149 138 133 171 180 155 186 200 210 209 202 84 156 176 199 197 254 213 203 234 198 193 200 187 191 202 168 258 303 64 182 259 49 105 78 52 120 126 181 202 171 90 90 106 234 344 46 253 269 215 247 284 290 277 299 245 257 268 267 258 258 262 259 254 259 263 262 259
234 233 233 230 231 232 227 224 211 186 178 181 209 204 200 215 216 206 174 135 135 146 168 208 195 165 179 191 200 189 179 176 175 190 190 181 245 209 182 208 204 198 204 194 213 246 159 234 302 41 190 283 32 112 92 16 80 129 178 178 131 142 215 122 166 228 195 248 279 285 277 265 216 228 271 194 228 246 252 256 273 266 248 247 264 272 267 259
233 236 242 236 228 227 228 220 199 183 180 192 209 209 211 217 220 211 181 128 142 166 193 212 197 176 179 181 176 170 185 191 171 179 189 184 234 207 179 194 206 198 198 188 194 241 145 203 263 343 293 323 35 166 186 190 34 52 97 144 118 146 181 163 159 171 175 232 279 317 315 266 219 197 190 209 222 223 236 266 272 258 247 249 274 288 277 263
225 226 252 243 228 225 225 210 192 183 186 200 201 209 210 223 231 219 210 215 198 177 204 214 194 187 192 188 179 170 194 200 175 184 205 191 216 234 188 185 169 173 186 185 195 189 115 210 238 328 331 202 190 214 193 180 169 154 164 175 182 144 117 157 173 128 132 163 217 290 289 267 236 178 187 207 220 218 223 236 244 252 256 254 269 298 293 276
217 220 255 239 231 224 210 198 188 191 201 198 207 215 211 223 235 215 216 221 225 223 219 210 196 196 187 190 205 189 183 195 185 193 222 203 212 243 196 178 158 136 150 175 207 203 172 196 185 179 243 210 222 252 214 195 182 178 191 193 188 171 136 158 235 216 133 172 193 176 270 271 244 172 197 205 208 218 220 221 241 256 256 258 280 304 308 294
205 223 245 225 227 213 195 188 190 196 192 201 207 204 206 223 219 190 206 215 223 235 234 216 209 206 187 183 199 177 159 184 192 196 225 218 214 226 196 180 167 155 151 171 204 193 153 114 146 198 218 220 237 265 209 202 149 135 206 202 174 154 153 170 206 219 163 210 196 109 267 274 252 162 200 212 217 238 225 217 243 259 258 272 290 282 231 304
202 220 236 219 222 207 190 188 213 194 201 219 211 207 203 210 205 188 193 205 213 219 221 228 216 211 217 187 175 172 176 194 196 199 221 230 224 229 196 178 168 158 158 170 195 164 123 126 190 239 301 305 308 340 36 76 100 123 245 181 168 188 195 180 187 187 159 196 186 115 252 266 278 138 202 231 273 270 246 232 243 255 263 277 276 250 167 235
219 225 233 224 214 201 186 194 213 198 217 218 217 219 216 220 208 191 190 195 200 200 210 227 223 210 218 169 151 178 187 197 209 209 217 229 230 227 188 179 173 166 178 187 174 164 164 187 188 184 302 316 321 302 279 25 142 194 218 201 196 196 185 144 99 145 190 214 187 166 246 253 281 348 317 330 289 274 256 247 249 254 258 262 253 235 247 279
248 231 229 222 206 196 195 210 210 208 212 209 217 217 215 229 220 204 204 200 200 195 199 223 218 200 198 159 167 189 192 204 219 209 212 230 251 237 187 186 182 187 207 203 177 166 166 189 177 181 218 227 231 235 217 182 150 190 220 207 203 194 183 186 198 188 227 222 175 184 242 251 313 329 288 286 297 278 258 249 252 250 244 244 250 248 264 281
265 232 215 211 203 204 215 220 213 217 213 207 217 211 211 225 220 212 214 206 205 204 209 227 207 183 184 181 193 208 206 216 225 202 196 218 229 356 189 191 192 200 217 215 179 165 146 194 187 194 210 218 235 240 164 129 150 203 217 203 199 201 194 193 205 212 218 204 176 217 234 248 260 242 244 253 240 247 257 252 251 245 236 237 249 251 264 282
254 253 194 186 203 219 237 235 222 225 212 200 198 195 209 218 219 213 207 202 208 206 214 233 199 186 200 199 209 221 209 215 227 221 215 209 211 334 208 196 203 207 209 196 182 165 99 211 199 207 214 220 238 239 168 147 178 203 208 201 200 201 193 192 211 218 205 163 231 235 226 241 253 235 210 231 230 230 251 244 240 239 235 240 245 243 258 274
241 261 233 203 189 211 229 228 224 230 227 210 196 197 210 211 213 209 193 198 211 203 206 226 212 211 213 205 214 225 208 206 219 221 225 210 169 77 228 207 217 210 196 178 186 166 149 218 205 214 222 225 238 235 190 178 198 205 206 204 200 195 192 198 214 221 208 189 235 243 216 221 247 241 212 212 210 215 230 233 234 234 236 240 240 244 259 268
239 263 266 254 245 235 247 237 220 217 228 221 201 212 214 208 210 210 189 188 211 204 200 211 215 218 220 214 215 220 214 211 216 218 219 210 184 160 189 216 217 201 177 167 199 181 180 219 211 214 224 230 237 234 207 203 217 216 211 207 199 194 196 204 214 221 216 213 234 244 229 230 244 240 207 200 208 220 227 231 235 236 239 245 253 259 263 265
228 234 265 271 259 254 275 272 219 200 217 218 213 223 218 214 214 209 194 190 200 201 201 213 222 218 218 220 218 221 223 218 222 223 210 202 203 184 192 198 162 174 179 182 214 194 189 219 215 208 226 236 237 237 219 210 222 225 221 216 207 202 204 209 216 219 217 224 236 242 251 256 250 194 169 195 208 222 233 233 235 240 246 255 258 258 260 261
236 238 254 283 279 232 254 262 202 188 211 204 203 209 213 223 220 212 211 210 209 207 201 214 228 228 223 225 222 228 232 226 229 233 216 205 213 207 205 197 165 163 185 191 195 181 191 222 199 179 227 235 236 237 224 207 227 242 236 223 213 212 212 212 216 216 211 218 231 238 250 255 242 128 156 192 200 217 234 234 235 240 244 247 248 249 254 258
240 250 257 263 261 207 218 232 206 209 214 195 194 202 210 220 215 208 224 224 219 223 219 214 224 231 231 228 224 229 236 237 243 252 248 234 228 221 213 204 187 177 177 185 197 188 185 204 207 199 223 237 239 236 212 161 206 244 233 223 218 215 212 211 221 225 216 210 216 223 233 241 231 134 162 196 192 210 227 229 231 233 233 234 238 243 248 252